Location: Melbourne
(37.8120°S, 144.9677°E)
Time: 09:48:11
(UTC+11:00)

Daily predictions for brighter satellites

Satellite Brightness Start Highest point End
(mag) Time Altitude Azimuth Time Altitude Azimuth Time Altitude Azimuth
OAO 3 Rocket 4.2 21:01:14 10° NW 21:05:26 28° NNE 21:09:42 10° E
Helios 1B rocket 2.9 21:02:31 10° NNE 21:06:31 47° ESE 21:10:34 10° S
FengYun 1-2 T 4.2 21:03:40 10° SSE 21:09:15 74° ENE 21:14:48 10° N
Cosmos 1953 Rocket 3.9 21:05:32 10° S 21:09:53 50° E 21:14:12 10° NNE
Cosmos 1766 4.4 21:07:39 10° NNE 21:10:55 26° E 21:14:14 10° SSE
BREEZE-M DEB (TANK) 4.0 21:07:28 10° WNW 21:11:22 76° SSW 21:26:02 10° ESE
USA 186 3.0 21:10:42 10° SE 21:13:20 23° E 21:15:55 10° NNE
Cosmos 1269 Rocket 4.2 21:08:24 10° N 21:13:34 56° ENE 21:18:47 10° SSE
ATLAS 3B R/B 3.5 21:08:16 10° NNE 21:13:35 26° ENE 21:19:05 10° SE
SL-16 R/B 3.8 21:09:36 10° S 21:13:49 21° SE 21:18:00 10° ENE
Cosmos 1932 4.4 21:07:46 10° NNW 21:13:52 72° ENE 21:20:03 10° SE
Cosmos 2292 Rocket 3.8 21:11:53 10° NNE 21:14:56 35° E 21:18:43 10° SSE
Cosmos 921 Rocket 3.2 21:11:44 10° S 21:16:18 65° ESE 21:20:44 10° NNE
Cosmos 1939 Rocket 4.3 21:13:59 10° SE 21:17:07 21° E 21:20:12 10° NE
Cosmos 1544 3.8 21:15:58 10° NNE 21:19:20 34° E 21:22:46 10° SSE
Cosmos 1607 4.2 21:16:08 10° NW 21:22:23 76° WSW 21:28:33 10° SSE
SJ-6B 2.9 21:21:20 10° SSE 21:25:20 88° WSW 21:29:23 10° NNW
BREEZE-M DEB 4.1 21:24:22 10° SW 21:26:33 46° SE 21:28:42 13° ENE
Cosmos 1048 Rocket 4.1 21:22:40 10° NNW 21:27:58 86° WSW 21:33:16 10° SSE
Cosmos 2333 Rocket 2.4 21:23:51 10° SSW 21:29:33 78° WNW 21:35:14 10° NNE
COSMOS 2428 4.1 21:27:07 10° SW 21:32:21 37° WNW 21:37:32 10° N
Aureole 3 Rocket 3.9 21:30:48 10° SSW 21:34:00 41° W 21:37:57 10° NNW
Genesis I 3.3 21:31:55 10° SSW 21:35:42 60° ESE 21:38:42 15° NE
Envisat 3.1 21:31:38 10° SSE 21:36:43 58° E 21:41:44 10° N
Resurs 01 Rocket 1.9 21:33:14 10° SSE 21:37:38 49° E 21:41:57 10° N
Cosmos 1420 Rocket 4.4 21:34:38 10° SSW 21:39:57 65° WNW 21:45:14 10° N
Cosmos 1674 4.4 21:42:47 10° SSE 21:45:36 19° ESE 21:47:13 15° ENE
Cosmos 2058 Rocket 3.4 21:42:34 10° NNW 21:47:02 72° W 21:51:36 10° S
Cosmos 1758 Rocket 4.4 21:42:47 10° SSW 21:47:11 52° W 21:51:27 10° N
Nadezhda 1 Rocket 4.0 21:41:58 10° S 21:48:19 87° E 21:54:30 10° N
Cosmos 2219 Rocket 3.2 21:43:22 10° SW 21:48:41 43° WNW 21:53:56 10° N
Cosmos 1707 4.3 21:46:48 10° SSW 21:50:26 36° W 21:54:00 10° NNW
Cosmos 2082 3.9 21:46:21 10° NNW 21:52:02 80° WSW 21:57:50 10° SSE
NOSS 0 Rocket 4.5 21:49:24 10° SSW 21:55:34 58° WNW 22:01:38 10° N
Cosmos 1900 4.5 21:56:25 10° SSW 22:01:27 77° WNW 22:05:05 19° NNE
Cosmos 2237 Rocket 2.5 21:57:59 10° SSW 22:03:40 66° WNW 22:08:24 15° N
Cosmos 2227 Rocket 3.2 21:59:40 10° NW 22:05:07 48° WSW 22:10:38 10° SSE
YAOGAN 6 2.5 22:03:09 10° SSE 22:06:50 76° E 22:09:34 17° N
Cosmos 1953 2.7 22:12:50 27° NNE 22:14:40 47° E 22:18:38 10° SSE
Nimbus 7 Rocket 4.4 22:11:06 17° NNE 22:15:47 86° WNW 22:21:50 10° SSW
USA 238 DEB 3.7 22:10:32 10° NNW 22:17:44 74° ENE 22:24:56 10° SE
USA 238 3.7 22:10:38 10° NNW 22:17:50 73° ENE 22:25:03 10° SE
USA 215 3.3 22:11:55 10° SE 22:18:25 56° NE 22:24:51 10° NNW
GPS 2-05 Rocket1 2.6 22:15:21 10° W 22:18:31 58° N 22:19:10 46° NE
Cosmos 1242 Rocket 2.8 22:16:14 15° NNW 22:19:15 72° W 22:23:01 10° S
ATLAS 5 CENTAUR R/B 2.4 22:14:23 10° SW 22:19:16 48° WNW 22:22:02 22° N
Tiangong 1 0.7 22:17:05 10° WNW 22:19:36 68° SSW 22:20:31 34° SE
Lacrosse 5 4.2 22:18:26 10° W 22:22:45 27° SW 22:27:06 10° SSE
Cosmos 724 4.3 22:19:05 10° NNW 22:25:02 75° ENE 22:31:10 10° SSE
Cosmos 1812 Rocket 3.5 22:22:00 20° N 22:25:05 85° E 22:29:37 10° S
ERS-1 Rocket 3.9 22:24:29 10° SE 22:28:56 30° E 22:29:51 28° ENE
Cosmos 1758 3.3 22:27:33 25° N 22:29:51 85° W 22:33:57 10° S
Cosmos 2181 Rocket 3.9 22:24:46 10° S 22:30:59 79° E 22:34:40 26° NNE
Cosmos 2297 Rocket 3.9 22:26:59 10° NW 22:32:09 35° WSW 22:37:21 10° S
Spot 2 Rocket 4.1 22:29:43 10° S 22:34:48 58° WSW 22:39:49 10° NNW
Cosmos 1076 Rocket 4.2 22:35:44 10° S 22:39:45 36° ESE 22:40:24 34° E
Okean 3 Rocket 4.1 22:36:02 10° S 22:40:16 41° E 22:41:07 37° ENE
Cosmos 1400 Rocket 3.9 22:39:04 10° SSE 22:42:39 29° ESE 22:42:55 28° E
Cosmos 1331 Rocket 4.2 22:37:47 10° SSW 22:43:07 69° WNW 22:45:39 31° N
Cosmos 1110 Rocket 4.4 22:37:59 10° SSW 22:43:17 60° WNW 22:46:01 28° N
MetOp-B 4.5 22:41:41 10° SSE 22:46:54 47° E 22:48:19 38° NE
Cosmos 2227 4.2 22:44:46 28° N 22:47:41 63° ENE 22:53:18 10° SSE
Cosmos 2251 Rocket 3.8 22:43:07 10° NNW 22:48:20 68° WSW 22:53:38 10° SSE
OAO 3 Rocket 3.3 22:43:43 10° WNW 22:48:36 58° N 22:50:00 42° ENE
Lacrosse 4 Rocket 2.4 22:44:21 10° S 22:48:37 39° ESE 22:49:42 33° E
Cosmos 1626 4.4 22:46:46 10° SE 22:48:27 14° ESE 22:48:27 14° ESE
NOSS 3-2 (A) 4.0 22:40:50 10° NNW 22:49:02 69° ENE 22:56:40 10° SE
Helios 1A 3.0 22:48:47 10° SSE 22:53:01 59° ENE 22:53:33 54° NE
CZ-2C R/B 3.2 22:52:33 35° ENE 22:54:25 47° ESE 22:59:51 10° S
NOSS 3-2 (C) 4.1 22:48:35 14° NNW 22:55:45 59° ENE 23:03:18 10° SE
SL-16 R/B 2.6 22:52:43 10° SSW 22:58:18 56° WNW 23:00:43 32° N
SME Rocket 4.4 22:50:11 10° SSE 22:59:34 79° ENE 23:03:03 30° N
Meteor 2-19 Rocket 4.4 22:57:38 38° NNE 22:59:57 64° E 23:06:02 10° SSE
Cosmos 1766 Rocket 4.3 22:56:48 10° S 23:01:02 37° ESE 23:01:19 37° E
Cosmos 1470 3.2 23:00:58 42° NW 23:02:08 62° W 23:06:10 10° S
Cosmos 1315 Rocket 4.3 22:59:31 10° SSE 23:02:50 25° ESE 23:02:50 25° ESE
SPOT 1/Viking Rocket 4.4 22:59:02 10° SE 23:03:41 32° E 23:03:41 32° E
ATLAS 3B R/B 3.3 22:57:13 10° NW 23:03:46 56° SW 23:10:41 10° SSE
SL-19 R/B 4.4 23:03:43 39° NNE 23:06:12 87° WNW 23:12:08 10° SSW
Cosmos 1603 4.0 23:01:11 10° SSW 23:06:45 56° ESE 23:08:18 42° ENE
deb Chang Zheng 4 4.1 23:07:29 41° E 23:07:47 42° ESE 23:11:55 10° S
ARGOS 3.1 23:02:32 10° SSE 23:08:01 73° ENE 23:09:38 46° N
BREEZE-M DEB (TANK) 2.8 23:05:55 10° SW 23:08:25 51° SE 23:09:23 40° E
Cosmos-2242 3.3 23:09:56 51° E 23:09:56 51° E 23:13:58 10° SSE
Cosmos 2263 Rocket 2.7 23:11:25 39° ENE 23:11:27 39° ENE 23:16:42 10° SE
ERBS 3.3 23:09:56 10° SW 23:12:47 42° W 23:12:47 42° W
Resurs 01 Rocket 4.5 23:11:06 10° SSW 23:13:39 15° WSW 23:16:12 10° W
CZ-4 R/B 3.9 23:14:03 54° N 23:15:15 83° WNW 23:20:23 10° SSW
Meteor 1-16 Rocket 4.0 23:24:52 59° N 23:25:55 83° E 23:31:20 10° S
SL-14 R/B 3.4 23:23:37 10° SSW 23:27:19 70° WSW 23:27:19 70° WSW
H-2A R/B 2.1 23:22:03 10° SSE 23:27:37 83° ENE 23:28:47 57° N
Cosmos 2074 Rocket 4.4 23:26:13 28° NNW 23:29:32 58° W 23:35:45 10° S
MetOp-A 4.5 23:25:37 10° S 23:30:58 62° WSW 23:33:10 35° NW
Cosmos 2154 Rocket 3.9 23:30:04 51° NNE 23:31:45 77° E 23:38:09 10° S
USA 81 4.0 23:27:00 10° S 23:32:21 71° E 23:32:56 65° NE
SPOT 5 3.0 23:31:43 10° SSE 23:37:11 85° ENE 23:38:02 65° N
BREEZE-M DEB (TANK) 4.3 23:31:19 10° WSW 23:43:42 50° S 23:45:15 32° ESE
Cosmos 1703 4.4 23:40:13 10° S 23:43:06 37° SE 23:43:06 37° SE
Cosmos 1943 3.3 23:39:04 10° SSW 23:44:46 62° ESE 23:45:35 56° ENE
Cosmos 2221 4.5 23:47:07 20° ESE 23:47:07 20° ESE 23:49:15 10° SE
YAOGAN 11 4.4 23:42:49 10° SSE 23:46:50 60° ESE 23:46:50 60° ESE
CENTAUR R/B 3.1 23:47:05 49° NNE 23:48:24 54° ENE 23:55:30 10° SE
